Voltar ao catálogo

FENGYUN 1C DEB

LostSSO
NORAD 38808·DEBRIS·🇨🇳 China

Lançado May 10, 1999 de Taiyuan Satellite Launch Center

Loading…

Próximas Passagens (próximas 24 horas)

TLE

ObsoletoSource: Space-Track

Época: Sep 5, 2022, 12:52 UTC

1 38808U 99025EUY 22248.53657703 -.00011004  00000-0 -31129-2 0  9992
2 38808  98.7946 356.6969 0156367 244.2346 176.9334 14.38495527714967

Acompanhe FENGYUN 1C DEB em tempo real com AllMySat

Download on the App Store